| time (UTC) | temp F | wind direction | speed knots | gust knots | rain 1hr in | rain 24hr in | rain mn in | humidity % | barometer mb |
| 20260505223602 | 67 | 232 | 2.6 | 5.2 | 0.00 | 0.00 | 0.00 | 69 | 1015.3 |
| 20260505222724 | 65 | 255 | 1.7 | 7.0 | 0.00 | 0.00 | 0.00 | 70 | 1015.3 |
| 20260505221802 | 65 | 240 | 2.6 | 7.0 | 0.00 | 0.00 | 0.00 | 72 | 1015.4 |
| 20260505220902 | 65 | 260 | 2.6 | 6.1 | 0.00 | 0.00 | 0.00 | 71 | 1015.5 |
| 20260505220003 | 67 | 214 | 1.7 | 6.1 | 0.00 | 0.00 | 0.00 | 68 | 1015.6 |
| 20260505215402 | 65 | 201 | 1.7 | 6.1 | 0.00 | 0.00 | 0.00 | 73 | 1015.7 |
| 20260505214502 | 65 | 240 | 1.7 | 6.1 | 0.00 | 0.00 | 0.00 | 71 | 1015.8 |
| 20260505213602 | 63 | 222 | 2.6 | 6.1 | 0.00 | 0.00 | 0.00 | 72 | 1015.8 |
| 20260505212723 | 63 | 246 | 1.7 | 4.3 | 0.00 | 0.00 | 0.00 | 72 | 1015.8 |
| 20260505211803 | 64 | 262 | 2.6 | 7.0 | 0.00 | 0.00 | 0.00 | 71 | 1016.0 |
| 20260505210923 | 63 | 235 | 2.6 | 7.8 | 0.00 | 0.00 | 0.00 | 74 | 1015.9 |
| 20260505210003 | 64 | 246 | 1.7 | 7.8 | 0.00 | 0.00 | 0.00 | 74 | 1015.9 |
| 20260505205402 | 62 | 247 | 1.7 | 3.5 | 0.00 | 0.00 | 0.00 | 76 | 1016.0 |
| 20260505204523 | 61 | 273 | 1.7 | 6.1 | 0.00 | 0.00 | 0.00 | 76 | 1016.1 |
| 20260505203603 | 60 | 230 | 1.7 | 5.2 | 0.00 | 0.00 | 0.00 | 77 | 1016.0 |
| 20260505202702 | 61 | 225 | 1.7 | 4.3 | 0.00 | 0.00 | 0.00 | 77 | 1016.0 |
| 20260505201802 | 60 | 253 | 1.7 | 6.1 | 0.00 | 0.00 | 0.00 | 77 | 1016.1 |
| 20260505200923 | 60 | 315 | 0.9 | 3.5 | 0.00 | 0.00 | 0.00 | 77 | 1016.2 |
| 20260505200002 | 60 | 211 | 1.7 | 3.5 | 0.00 | 0.00 | 0.00 | 77 | 1016.1 |
| 20260505195402 | 59 | 194 | 0.9 | 2.6 | 0.00 | 0.00 | 0.00 | 79 | 1016.1 |
| 20260505194502 | 59 | 187 | 1.7 | 3.5 | 0.00 | 0.00 | 0.00 | 80 | 1016.2 |
| 20260505193602 | 59 | 179 | 0.9 | 4.3 | 0.00 | 0.00 | 0.00 | 81 | 1016.3 |
| 20260505192702 | 59 | 200 | 1.7 | 4.3 | 0.00 | 0.00 | 0.00 | 80 | 1016.2 |
| 20260505191802 | 58 | 251 | 0.9 | 3.5 | 0.00 | 0.00 | 0.00 | 82 | 1016.4 |
| 20260505190923 | 58 | 258 | 0.9 | 3.5 | 0.00 | 0.00 | 0.00 | 84 | 1016.5 |
| 20260505190004 | 57 | 225 | 1.7 | 4.3 | 0.00 | 0.00 | 0.00 | 82 | 1016.3 |
| 20260505185402 | 57 | 223 | 0.9 | 4.3 | 0.00 | 0.00 | 0.00 | 83 | 1016.3 |
| 20260505184523 | 57 | 270 | 1.7 | 6.1 | 0.00 | 0.00 | 0.00 | 82 | 1016.3 |
| 20260505183602 | 56 | 269 | 1.7 | 5.2 | 0.00 | 0.00 | 0.00 | 84 | 1016.2 |
| 20260505182723 | 56 | 241 | 1.7 | 3.5 | 0.00 | 0.00 | 0.00 | 84 | 1016.2 |
| 20260505181803 | 56 | 229 | 1.7 | 3.5 | 0.00 | 0.00 | 0.00 | 84 | 1016.2 |
| 20260505180902 | 56 | 232 | 1.7 | 4.3 | 0.00 | 0.00 | 0.00 | 85 | 1016.0 |
| 20260505180002 | 56 | 290 | 0.9 | 2.6 | 0.00 | 0.00 | 0.00 | 87 | 1016.1 |
| 20260505175402 | 56 | 324 | 0.9 | 2.6 | 0.00 | 0.00 | 0.00 | 87 | 1016.1 |
| 20260505174502 | 56 | 326 | 0.9 | 2.6 | 0.00 | 0.00 | 0.00 | 87 | 1015.9 |
| 20260505173603 | 55 | 327 | 0.0 | 1.7 | 0.00 | 0.00 | 0.00 | 89 | 1016.0 |
| 20260505172723 | 55 | 317 | 0.9 | 2.6 | 0.00 | 0.00 | 0.00 | 88 | 1016.0 |
| 20260505171802 | 54 | 297 | 0.9 | 1.7 | 0.00 | 0.00 | 0.00 | 88 | 1016.0 |
| 20260505170902 | 54 | 298 | 0.0 | 2.6 | 0.00 | 0.00 | 0.00 | 89 | 1016.0 |
| 20260505170023 | 55 | 303 | 0.0 | 2.6 | 0.00 | 0.00 | 0.00 | 90 | 1016.0 |
| 20260505165402 | 54 | 304 | 0.0 | 1.7 | 0.00 | 0.00 | 0.00 | 90 | 1015.9 |
| 20260505164502 | 54 | 304 | 0.0 | 0.9 | 0.00 | 0.00 | 0.00 | 90 | 1015.9 |
| 20260505163623 | 53 | 304 | 0.0 | 1.7 | 0.00 | 0.00 | 0.00 | 91 | 1016.0 |
| 20260505162702 | 53 | 303 | 0.9 | 3.5 | 0.00 | 0.00 | 0.00 | 93 | 1016.1 |
| 20260505161802 | 52 | 19 | 0.0 | 2.6 | 0.00 | 0.00 | 0.00 | 94 | 1016.1 |
| 20260505160902 | 52 | 292 | 0.0 | 1.7 | 0.00 | 0.00 | 0.00 | 95 | 1016.1 |
| 20260505152702 | 51 | 230 | 0.0 | 0.9 | 0.00 | 0.00 | 0.00 | 96 | 1016.0 |
| 20260505151823 | 51 | 230 | 0.0 | 1.7 | 0.00 | 0.00 | 0.00 | 96 | 1015.9 |
| 20260505150924 | 51 | 299 | 0.9 | 2.6 | 0.00 | 0.00 | 0.00 | 96 | 1016.0 |
| 20260505124502 | 50 | 0 | 0.0 | 0.0 | 0.00 | 0.00 | 0.00 | 96 | 1015.2 |
| 20260505123623 | 51 | 342 | 0.0 | 0.9 | 0.00 | 0.00 | 0.00 | 96 | 1015.0 |
| 20260505122723 | 51 | 342 | 0.0 | 0.9 | 0.00 | 0.00 | 0.00 | 96 | 1015.0 |
| 20260505121802 | 51 | 342 | 0.0 | 0.9 | 0.00 | 0.00 | 0.00 | 96 | 1014.9 |
| 20260505120902 | 51 | 342 | 0.0 | 0.9 | 0.00 | 0.00 | 0.00 | 96 | 1014.9 |
| 20260505120002 | 51 | 342 | 0.0 | 0.9 | 0.00 | 0.00 | 0.00 | 95 | 1015.0 |
| 20260505115402 | 51 | 342 | 0.0 | 1.7 | 0.00 | 0.00 | 0.00 | 95 | 1014.9 |
| 20260505114502 | 51 | 342 | 0.0 | 1.7 | 0.00 | 0.00 | 0.00 | 95 | 1015.0 |
| 20260505113624 | 51 | 0 | 0.0 | 0.0 | 0.00 | 0.00 | 0.00 | 95 | 1015.0 |
| 20260505112702 | 51 | 0 | 0.0 | 0.0 | 0.00 | 0.00 | 0.00 | 95 | 1014.9 |
| 20260505111802 | 51 | 342 | 0.0 | 0.9 | 0.00 | 0.00 | 0.00 | 95 | 1015.0 |
| 20260505110902 | 51 | 342 | 0.0 | 0.9 | 0.00 | 0.00 | 0.00 | 95 | 1014.9 |
| 20260505101803 | 51 | 0 | 0.0 | 0.0 | 0.00 | 0.00 | 0.00 | 95 | 1014.7 |
| 20260505100902 | 51 | 0 | 0.0 | 0.0 | 0.00 | 0.00 | 0.00 | 95 | 1014.6 |
| 20260505100002 | 52 | 0 | 0.0 | 0.0 | 0.00 | 0.00 | 0.00 | 95 | 1014.6 |
| 20260505095402 | 52 | 0 | 0.0 | 0.0 | 0.00 | 0.00 | 0.00 | 95 | 1014.7 |
| 20260505094502 | 51 | 0 | 0.0 | 0.0 | 0.00 | 0.00 | 0.00 | 95 | 1014.7 |
| 20260505093604 | 51 | 0 | 0.0 | 0.0 | 0.00 | 0.00 | 0.00 | 95 | 1014.6 |
| 20260505092702 | 51 | 344 | 0.0 | 1.7 | 0.00 | 0.00 | 0.00 | 95 | 1014.8 |
| 20260505091802 | 52 | 0 | 0.0 | 0.0 | 0.00 | 0.00 | 0.00 | 95 | 1014.8 |
| 20260505090902 | 52 | 0 | 0.0 | 0.0 | 0.00 | 0.00 | 0.00 | 95 | 1014.7 |
| 20260505090002 | 52 | 0 | 0.0 | 0.0 | 0.00 | 0.00 | 0.00 | 95 | 1014.7 |
| 20260505085402 | 52 | 0 | 0.0 | 0.0 | 0.00 | 0.00 | 0.00 | 95 | 1014.6 |
| 20260505084502 | 52 | 0 | 0.0 | 0.0 | 0.00 | 0.00 | 0.00 | 95 | 1014.7 |
| 20260505083623 | 52 | 0 | 0.0 | 0.0 | 0.00 | 0.00 | 0.00 | 95 | 1014.7 |
| 20260505082703 | 52 | 344 | 0.0 | 0.9 | 0.00 | 0.00 | 0.00 | 95 | 1014.8 |
| 20260505081802 | 52 | 0 | 0.0 | 0.0 | 0.00 | 0.00 | 0.00 | 95 | 1014.7 |
| 20260505080902 | 52 | 0 | 0.0 | 0.0 | 0.00 | 0.00 | 0.00 | 94 | 1014.7 |
| 20260505080002 | 52 | 344 | 0.0 | 0.9 | 0.00 | 0.00 | 0.00 | 94 | 1014.9 |
| 20260505075402 | 52 | 344 | 0.0 | 0.9 | 0.00 | 0.00 | 0.00 | 94 | 1014.9 |
| 20260505074502 | 52 | 0 | 0.0 | 0.0 | 0.00 | 0.00 | 0.00 | 94 | 1014.9 |
| 20260505073603 | 52 | 330 | 0.0 | 2.6 | 0.00 | 0.00 | 0.00 | 94 | 1014.9 |
| 20260505072702 | 52 | 317 | 0.0 | 2.6 | 0.00 | 0.00 | 0.00 | 94 | 1015.0 |
| 20260505071802 | 52 | 260 | 0.0 | 1.7 | 0.00 | 0.00 | 0.00 | 93 | 1015.0 |
| 20260505070902 | 52 | 0 | 0.0 | 0.0 | 0.00 | 0.00 | 0.00 | 93 | 1015.0 |
| 20260505070002 | 52 | 260 | 0.0 | 0.9 | 0.00 | 0.00 | 0.00 | 92 | 1015.0 |
| 20260505065402 | 52 | 261 | 0.0 | 1.7 | 0.00 | 0.00 | 0.00 | 92 | 1015.0 |
| 20260505064503 | 53 | 295 | 0.0 | 1.7 | 0.00 | 0.00 | 0.00 | 91 | 1014.9 |
| 20260505063603 | 53 | 267 | 0.0 | 3.5 | 0.00 | 0.00 | 0.00 | 91 | 1014.8 |
| 20260505062702 | 53 | 300 | 0.0 | 1.7 | 0.00 | 0.00 | 0.00 | 90 | 1014.9 |
| 20260505061802 | 54 | 334 | 0.0 | 3.5 | 0.00 | 0.00 | 0.00 | 90 | 1014.8 |
| 20260505060902 | 54 | 316 | 0.0 | 1.7 | 0.00 | 0.00 | 0.00 | 89 | 1014.7 |
| 20260505060002 | 54 | 299 | 0.0 | 1.7 | 0.00 | 0.00 | 0.00 | 89 | 1014.7 |
| 20260505055402 | 54 | 309 | 0.0 | 1.7 | 0.00 | 0.00 | 0.00 | 89 | 1014.6 |
| 20260505054502 | 54 | 1 | 0.0 | 1.7 | 0.00 | 0.00 | 0.00 | 88 | 1014.6 |
| 20260505053623 | 54 | 37 | 0.0 | 1.7 | 0.00 | 0.00 | 0.00 | 88 | 1014.5 |
| 20260505052702 | 54 | 241 | 0.0 | 2.6 | 0.00 | 0.00 | 0.00 | 88 | 1014.4 |
| 20260505051802 | 54 | 258 | 0.9 | 3.5 | 0.00 | 0.00 | 0.00 | 88 | 1014.6 |
| 20260505050902 | 54 | 260 | 0.9 | 6.1 | 0.00 | 0.00 | 0.00 | 88 | 1014.5 |
| 20260505040902 | 55 | 267 | 0.0 | 1.7 | 0.00 | 0.00 | 0.00 | 86 | 1014.0 |
| 20260505040023 | 55 | 259 | 0.9 | 5.2 | 0.00 | 0.00 | 0.00 | 86 | 1013.9 |
| 20260505035402 | 55 | 241 | 0.9 | 3.5 | 0.00 | 0.00 | 0.00 | 86 | 1013.7 |
| 20260505034502 | 56 | 281 | 0.9 | 2.6 | 0.00 | 0.00 | 0.00 | 86 | 1013.8 |
| 20260505033602 | 56 | 318 | 0.9 | 2.6 | 0.00 | 0.00 | 0.00 | 86 | 1013.6 |
| 20260505032702 | 56 | 306 | 0.9 | 3.5 | 0.00 | 0.00 | 0.00 | 85 | 1013.5 |
| 20260505031802 | 56 | 300 | 0.9 | 1.7 | 0.00 | 0.00 | 0.00 | 84 | 1013.4 |
| 20260505030923 | 57 | 302 | 0.9 | 3.5 | 0.00 | 0.00 | 0.00 | 84 | 1013.3 |
| 20260505030002 | 57 | 272 | 0.9 | 2.6 | 0.00 | 0.00 | 0.00 | 84 | 1013.2 |
| 20260505025402 | 57 | 271 | 0.0 | 1.7 | 0.00 | 0.00 | 0.00 | 84 | 1013.2 |
| 20260505024502 | 57 | 282 | 0.9 | 2.6 | 0.00 | 0.00 | 0.00 | 84 | 1013.2 |
| 20260505023602 | 57 | 291 | 0.9 | 3.5 | 0.00 | 0.00 | 0.00 | 84 | 1013.1 |
| 20260505022702 | 58 | 297 | 1.7 | 4.3 | 0.00 | 0.00 | 0.00 | 83 | 1013.0 |
| 20260505021802 | 58 | 258 | 0.9 | 5.2 | 0.00 | 0.00 | 0.00 | 83 | 1012.9 |
| 20260505020923 | 58 | 252 | 1.7 | 6.1 | 0.00 | 0.00 | 0.00 | 82 | 1012.9 |
| 20260505020023 | 58 | 263 | 1.7 | 5.2 | 0.00 | 0.00 | 0.00 | 82 | 1012.9 |
| 20260505015402 | 59 | 264 | 1.7 | 7.0 | 0.00 | 0.00 | 0.00 | 81 | 1012.8 |
| 20260505014502 | 59 | 210 | 0.9 | 3.5 | 0.00 | 0.00 | 0.00 | 80 | 1013.0 |
| 20260505013602 | 60 | 209 | 0.9 | 3.5 | 0.00 | 0.00 | 0.00 | 80 | 1012.9 |
| 20260505012702 | 60 | 234 | 1.7 | 6.1 | 0.00 | 0.00 | 0.00 | 79 | 1013.0 |
| 20260505011802 | 60 | 223 | 1.7 | 6.1 | 0.00 | 0.00 | 0.00 | 79 | 1012.8 |
| 20260505010923 | 61 | 225 | 0.9 | 6.1 | 0.00 | 0.00 | 0.00 | 77 | 1012.8 |
| 20260505010002 | 61 | 245 | 1.7 | 6.1 | 0.00 | 0.00 | 0.00 | 77 | 1012.8 |
| 20260505005402 | 61 | 274 | 2.6 | 7.0 | 0.00 | 0.00 | 0.00 | 75 | 1012.9 |
| 20260505004502 | 63 | 282 | 1.7 | 7.0 | 0.00 | 0.00 | 0.00 | 73 | 1012.8 |
| 20260505003602 | 63 | 253 | 2.6 | 7.8 | 0.00 | 0.00 | 0.00 | 75 | 1012.8 |
| 20260505002702 | 62 | 241 | 2.6 | 6.1 | 0.00 | 0.00 | 0.00 | 74 | 1012.8 |
| 20260505001802 | 62 | 253 | 1.7 | 7.0 | 0.00 | 0.00 | 0.00 | 74 | 1012.7 |
| 20260505000902 | 62 | 248 | 2.6 | 8.7 | 0.00 | 0.00 | 0.00 | 75 | 1012.8 |
| 20260505000002 | 62 | 225 | 2.6 | 8.7 | 0.00 | 0.00 | 0.00 | 74 | 1012.9 |
| 20260504235403 | 63 | 217 | 1.7 | 4.3 | 0.00 | 0.00 | 0.00 | 74 | 1012.7 |
| 20260504234502 | 62 | 226 | 2.6 | 7.0 | 0.00 | 0.00 | 0.00 | 74 | 1012.9 |
| 20260504233623 | 63 | 250 | 1.7 | 7.0 | 0.00 | 0.00 | 0.00 | 73 | 1012.8 |
| 20260504232702 | 63 | 255 | 1.7 | 5.2 | 0.00 | 0.00 | 0.00 | 73 | 1012.9 |
| 20260504231823 | 63 | 268 | 1.7 | 6.1 | 0.00 | 0.00 | 0.00 | 73 | 1013.0 |
| 20260504230923 | 64 | 248 | 2.6 | 7.8 | 0.00 | 0.00 | 0.00 | 74 | 1013.0 |
| 20260504230002 | 64 | 245 | 2.6 | 9.6 | 0.00 | 0.00 | 0.00 | 71 | 1013.0 |
| 20260504225402 | 65 | 236 | 1.7 | 6.1 | 0.00 | 0.00 | 0.00 | 72 | 1013.1 |
| 20260504224502 | 64 | 215 | 1.7 | 10.4 | 0.00 | 0.00 | 0.00 | 73 | 1013.2 |